Погода в Лагани

Погода в Лагани : погода сейчас, прогноз погоды и архив. Всё, что Вы хотите узнать о погоде в Лагани!

Поиск расширенной информации на нашем сайте:

Другие новости

Новости СМИ2

Главная страница сайта

Новости сайта

03.07.2017

Напоминаем, что на нашем специализированном сайте Метеоцентр.Азия вы можете получить высокодетализированные автоматические прогнозы погоды по пунктам России, СНГ и мира в авиационном формате (включающие направление и скорость ветра, видимость, явления погоды, количество и форму облачности, нижнюю и верхнюю границу облачности).


Погода в Лагани - сегодня

Время (UTC), дата Ветер
(°,м/с) 
Видим.   Явления Облачность Т
(°С)
Тd
(°С)
f(%) Тe
(°С)
Pmin
(гПа)
dP
(гПа)
Po
(мм)
O2
(г/м3)
Тmin Tmax R s Состояние
почвы
00 12.11.18 020 (С) 10 км    10/4 600 м средняя 
[Sc diur, vesp|Ac As]
-1.3 -2.9 89 -5  1034.7  0.1  778  315           
03 12.11.18 040 (СВ) 10 км  слаб. ливневой снег  10/8 600 м кучево-дожд., средняя 
[Cb cap|As op]
+0.5 -1 90 -2  1035.2  0.5  779  313  -1.4    0.0     
06 12.11.18 050 (СВ) 6{12}  10 км  снежные зёрна{ливн. осадки}  10/8 300 м средняя 
[St|Ac As]
+1.1 -1.1 85 -2  1035.8  0.6  779  313           
09 12.11.18 050 (СВ) 6-10{12}  4000 м  слаб. снег  10/8 200 м средняя 
[Frnb|As op]
+0.9 -0.3 92 -2  1035.5  -0.3  779  313           
12 12.11.18 050 (СВ) 6-11{14}  10 км  {снег}  10/8 300 м средняя 
[St|Ac As]
+0.9 -0.9 88 -2  1035  -0.5  778  313           
15 12.11.18 060 (СВ) 7-11  10 км    10/5 600 м кучево-дожд., средняя 
[Cb cap|Ac As]
+1.4 +0.1 91 -2  1034.8  -0.1  778  312    +1.4  0.3     
18 12.11.18 070 (В) 9-13{16}  10 км  слаб. ливневой дождь  10/8 600 м кучево-дожд., средняя 
[Cb cap|Ac As]
+1 -0.2 92 -3  1034.8  -0.1  778  312           
21 12.11.18 070 (В) 9-14{15}  10 км  слаб. ливневой дождь  10/8 600 м кучево-дожд., средняя 
[Cb cap|Ac As]
+0.6 -0.8 90 -4  1034.7  -0.1  778  313           
00 13.11.18 070 (В) 9-13{15}  10 км  слаб. ливневой снег  10/8 600 м кучево-дожд., средняя 
[Cb cap|Ac As]
+0.2 -1.1 91 -4  1034.4  -0.3  778  313           
03 13.11.18 070 (В) 10 км  {ливн. осадки}  10/4 600 м кучево-дожд., средняя 
[Cb cap|Ac As]
+0.6 -1.8 84 -4  1034.7  0.3  778  313  +0.2       
06 13.11.18 070 (В) 9-14{15}  20000 м  {ливн. осадки}  10/5 600 м средняя 
[Sc diur, vesp|Ac As]
+0.9 -2.2 80 -3  1035.3  0.6  779  313           
12 13.11.18 070 (В) 9-14{15}  20000 м    8/0 средняя, верхняя 
[Ac und|Ci sp]
+1.6 -3.5 69 -3  1035.1  0.3  778  312           
15 13.11.18 070 (В) 8-14  20000 м    9/0 средняя 
[Ac As]
+1.1 -3.7 70 -3  1036  0.9  779  313    +2.2       
18 13.11.18 070 (В) 7-11{14}  20000 м    4/0 верхняя 
[Ci sp]
+0.6 -3.2 76 -3  1035.8  -0.2  779  314           
21 13.11.18 070 (В) 7-11{13}  20000 м    10/0 средняя 
[Ac As]
+1 -3.2 73 -3  1035  -0.7  778  313           
00 14.11.18 070 (В) 8-12{13}  20000 м    10/0 средняя 
[Ac As]
+0.8 -3.2 75 -3  1034  -1.1  778  313           
03 14.11.18 070 (В) 6-10  20000 м    9/0 средняя 
[Ac As]
+0.4 -3.2 77 -3  1033.5  -0.5  777  313  +0         
06 14.11.18 070 (В) 8-12{13}  20000 м    9/5 600 м средняя 
[Sc|Ac As]
+1.3 -2.7 75 -3  1033.7  0.2  777  312           
09 14.11.18 070 (В) 9-14{14}  20000 м    8/0 средняя 
[Ac und]
+3.4 -4.1 58 1032.8  -0.9  777  310           
12 14.11.18 070 (В) 9-14{15}  20000 м    4/0 верхняя 
[Ci sp]
+2.7 -5.5 55 -1  1031.8  -0.9  776  310           
15 14.11.18 070 (В) 8-13{14}  20000 м    3/0 верхняя 
[Ci fib]
+0.6 -5.4 64 -4  1031.1  -0.6  776  312    +4.1       
18 14.11.18 070 (В) 7-11{13}  20000 м    ясно 
+0.4 -3.1 77 -3  1030.8  -0.4  775  312           
21 14.11.18 060 (СВ) 7-11{12}  20000 м    ясно 
+0 -3.1 80 -4  1029.6  -1.2  774  312           
00 15.11.18 060 (СВ) 7-10{11}  10 км    ясно 
-0.2 -3 81 -4  1027.9  -1.7  773  312           
03 15.11.18 070 (В) 6{10}  10 км    ясно 
-0.1 -2.8 82 -4  1027.6  -0.3  773  312  -0.4         
Время (UTC), дата Ветер
(°,м/с) 
Видим.   Явления Облачность Т
(°С)
Тd
(°С)
f(%) Тe
(°С)
Pmin
(гПа)
dP
(гПа)
Po
(мм)
O2
(г/м3)
Тmin Tmax R s Состояние
почвы

Для получения пояснительной информации подведите курсор к названию столбца.

ПОГОДА в Лагани - архив

Всё, что Вы хотите узнать о погоде в Лагани - удобно и подробно!

Выберите нужную дату (начиная с 1 января 2015* года) и нажмите кнопку "Найти".
Будут отображены архивные сводки погоды по пункту Лагань, начиная с указанной даты.


Отображать данные в формате CSV (для использования в таблицах Excel)


Внимание! Наш архив погоды предназначен исключительно для личного некоммерческого использования в познавательных целях. Если Вам необходимы официальные справки о состоянии погоды (для производственных, юридических, коммерческих и т.п. целей), обращайтесь в органы Росгидромета.

*Примечание: данная дата относится к архиву по метеостанциям СССР (Россия, СНГ, Балтия).
Архив по метеостанциям Зарубежной Европы и Азии (кроме Китая) хранится 10 дней, по другим регионам земного шара (Китай, Африка, Америка, Австралия, Океания) - 1 день.

Лагань - район местоположения метеостанции


Название, широта, долгота, высота метеостанции:
Лагань 45.4°ш. 47.3°д. -24 м над ур. моря [Российская Федерация]

Дополнительная информация

В oтличие oт бoльшинства пoгoдных сайтoв мы публикуем пoдрoбную метеoинфoрмацию в детальнoм прoфессиoнальнoм фoрмате.

Характеристики температуры и влажнoсти вoздуха измеряются на высoте 2 м в тени вдали oт зданий и деревьев.
Скoрoсть ветра измеряется на высoте 10 м (на урoвне рoста челoвека скoрoсть ветра ниже в 1.5-2 раза). Если метеoстанция нахoдится в гoрoде или в лесу, тo скoрoсть ветра занижена на 2-4 м/с пo сравнению с oткрытым местoм. Скoрoсть ветра над акватoриями крупных рек и oзёр, а также на вершинах хoлмoв на 2-5 м/с выше, чем в oбычных услoвиях.
Атмoсфернoе давление в разных тoчках местнoсти мoжет значительнo oтличаться oт давления на метеoстанции, в зависимoсти oт услoвий рельефа (при пoдъёме на 10 м давление пoнижается примернo на 1 мм рт.ст.).